Location: Eastlake (historical)
(39.0077°N, 122.6678°W)
Time: 08:56:43
(UTC+00:00)

CENTAUR R/B - Pass Details

Date: 25 November 2020
Orbit: 750 x 1438 km, 63.4° (Epoch: 11 January)

Event Time Altitude Azimuth Distance (km) Brightness Sun altitude
Exits shadow 12:27:29 25° 345° (NNW) 2,421 4.3 -30.2°
Maximum altitude 12:32:27 52° 50° (NE) 1,679 3.8 -29.3°
Drops below altitude 10° 12:41:01 10° 125° (SE) 3,540 6.1 -27.6°
Sets 12:44:06 0° 130° (SE) 4,514 6.8 -27.0°
